Date String (YYYY-MM-DD hh:mm:ss) UTC,Instrument flags,absolute air pressure of the measurement (hPa),sample flow rate (lpm),inlet stack bypass flow (lpm),air temperature of the measurement (°C),ambient temperature measured by the external sensor (°C),aerosol sample conditioner tube jacket temperature (°C),OPC LED temperature (°C),internal box temperature (°C),relative humidity of the measurement (%),span deviation,mass concentration of particles derived from Lorenz-Mie calculation of OPC scattering (μg/m³),mass concentration of particles derived from Lorenz-Mie calculation of OPC scattering (μg/m³),mass concentration of particles derived from Lorenz-Mie calculation of OPC scattering (μg/m³)
DateTimeUTC,F1_M11,P_M11,Q1_M11,Q2_M11,T1_M11,T2_M11,T3_M11,T4_M11,T5_M11,U1_M11,ZSPAN_M11,X2_M11,X0_M11,X1_M11
2023-07-25 05:00:00,SystemResetWarning,0834.9,5.00,000.00,029.4,026.8,000.0,037.5,030.7,28.6,0000.0,0006.32,0010.59,0005.46
2023-07-25 05:01:00,SystemResetWarning,0834.6,5.00,000.00,029.3,025.1,000.0,037.3,030.5,29.2,0000.0,0006.30,0010.65,0005.46
2023-07-25 05:02:00,SystemResetWarning,0835.2,5.00,000.00,029.2,024.6,000.0,037.3,030.3,29.1,0000.0,0006.30,0010.76,0005.47
2023-07-25 05:03:00,SystemResetWarning,0835.0,5.01,000.00,029.1,024.8,000.0,037.3,030.1,29.3,0000.0,0006.32,0011.16,0005.47
2023-07-25 05:04:00,SystemResetWarning,0835.1,5.01,000.00,029.0,025.2,000.0,037.3,030.1,28.9,0000.0,0006.32,0011.56,0005.47
2023-07-25 05:05:00,SystemResetWarning,0835.0,4.98,000.00,029.0,025.7,000.0,037.3,030.2,28.6,0000.0,0006.31,0012.04,0005.45
2023-07-25 05:06:00,SystemResetWarning,0835.0,5.00,000.00,029.0,026.1,000.0,037.4,030.3,28.6,0000.0,0006.30,0012.40,0005.44
2023-07-25 05:07:00,SystemResetWarning,0834.6,5.01,000.00,029.0,026.5,000.0,037.4,030.4,28.4,0000.0,0006.30,0012.31,0005.44
2023-07-25 05:08:00,SystemResetWarning,0834.5,5.01,000.00,029.0,026.9,000.0,037.4,030.5,28.3,0000.0,0006.27,0012.40,0005.41
2023-07-25 05:09:00,SystemResetWarning,0834.5,4.99,000.00,029.0,027.1,000.0,037.4,030.5,28.3,0000.0,0006.28,0012.49,0005.40
2023-07-25 05:10:00,SystemResetWarning,0834.5,4.99,000.00,029.1,027.4,000.0,037.4,030.6,28.1,0000.0,0006.27,0013.16,0005.37
2023-07-25 05:11:00,SystemResetWarning,0834.5,5.00,000.00,029.1,027.6,000.0,037.4,030.7,28.2,0000.0,0006.23,0013.26,0005.35
2023-07-25 05:12:00,SystemResetWarning,0834.5,5.00,000.00,029.2,027.8,000.0,037.5,030.7,28.2,0000.0,0006.23,0013.45,0005.34
2023-07-25 05:13:00,SystemResetWarning,0834.5,5.00,000.00,029.2,027.9,000.0,037.5,030.8,28.0,0000.0,0006.19,0013.59,0005.32
2023-07-25 05:14:00,SystemResetWarning,0834.4,5.00,000.00,029.2,027.5,000.0,037.5,030.8,28.0,0000.0,0006.18,0013.40,0005.28
2023-07-25 05:15:00,SystemResetWarning,0834.4,5.00,000.00,029.2,025.9,000.0,037.4,030.6,27.8,0000.0,0006.18,0013.48,0005.25
2023-07-25 05:16:00,SystemResetWarning,0834.4,5.00,000.00,029.1,025.3,000.0,037.3,030.3,27.7,0000.0,0006.15,0013.10,0005.23
2023-07-25 05:17:00,SystemResetWarning,0834.3,5.01,000.00,029.0,025.5,000.0,037.3,030.2,28.1,0000.0,0006.15,0012.77,0005.21
2023-07-25 05:18:00,SystemResetWarning,0834.3,5.01,000.00,029.0,025.9,000.0,037.4,030.3,28.3,0000.0,0006.13,0012.74,0005.20
2023-07-25 05:19:00,SystemResetWarning,0834.3,4.99,000.00,029.0,026.3,000.0,037.4,030.4,28.3,0000.0,0006.17,0012.70,0005.21
2023-07-25 05:20:00,SystemResetWarning,0834.3,5.00,000.00,029.0,026.7,000.0,037.4,030.5,28.4,0000.0,0006.18,0012.62,0005.21
2023-07-25 05:21:00,SystemResetWarning,0834.5,5.00,000.00,029.0,027.0,000.0,037.4,030.6,28.3,0000.0,0006.19,0012.28,0005.21
2023-07-25 05:22:00,SystemResetWarning,0834.4,5.01,000.00,029.1,027.3,000.0,037.4,030.6,28.4,0000.0,0006.16,0012.06,0005.20
2023-07-25 05:23:00,SystemResetWarning,0834.2,5.01,000.00,029.1,027.5,000.0,037.4,030.7,28.4,0000.0,0006.12,0011.69,0005.19
2023-07-25 05:24:00,SystemResetWarning,0834.2,4.99,000.00,029.1,027.7,000.0,037.5,030.8,28.5,0000.0,0006.11,0012.32,0005.17
2023-07-25 05:25:00,SystemResetWarning,0834.2,4.98,000.00,029.2,027.6,000.0,037.5,030.8,28.4,0000.0,0006.07,0012.17,0005.17
2023-07-25 05:26:00,SystemResetWarning,0834.2,5.00,000.00,029.2,026.1,000.0,037.4,030.6,28.3,0000.0,0005.99,0011.61,0005.15
2023-07-25 05:27:00,SystemResetWarning,0834.2,5.00,000.00,029.1,025.4,000.0,037.3,030.4,28.4,0000.0,0006.01,0011.90,0005.13
2023-07-25 05:28:00,SystemResetWarning,0834.1,5.01,000.00,029.0,025.5,000.0,037.3,030.2,28.5,0000.0,0006.01,0012.20,0005.12
2023-07-25 05:29:00,SystemResetWarning,0834.1,5.00,000.00,028.9,025.8,000.0,037.3,030.3,28.5,0000.0,0005.99,0012.62,0005.10
2023-07-25 05:30:00,SystemResetWarning,0834.1,4.99,000.00,028.9,026.2,000.0,037.3,030.3,28.9,0000.0,0005.96,0012.95,0005.07
2023-07-25 05:31:00,SystemResetWarning,0834.1,5.00,000.00,029.0,026.6,000.0,037.4,030.4,29.7,0000.0,0005.92,0013.03,0005.05
2023-07-25 05:32:00,SystemResetWarning,0834.1,5.01,000.00,029.0,026.9,000.0,037.4,030.5,29.0,0000.0,0005.89,0012.73,0005.04
2023-07-25 05:33:00,SystemResetWarning,0834.1,5.01,000.00,029.0,027.2,000.0,037.4,030.6,28.6,0000.0,0005.92,0012.88,0005.03
2023-07-25 05:34:00,SystemResetWarning,0834.1,4.99,000.00,029.0,027.5,000.0,037.4,030.7,28.4,0000.0,0005.95,0013.05,0005.02
2023-07-25 05:35:00,SystemResetWarning,0834.2,4.99,000.00,029.1,027.7,000.0,037.4,030.7,28.0,0000.0,0005.99,0012.58,0005.03
2023-07-25 05:36:00,SystemResetWarning,0834.2,4.99,000.00,029.1,027.8,000.0,037.5,030.8,28.0,0000.0,0006.00,0011.96,0005.03
2023-07-25 05:37:00,SystemResetWarning,0834.2,5.00,000.00,029.2,027.3,000.0,037.4,030.8,28.4,0000.0,0006.05,0012.32,0005.04
2023-07-25 05:38:00,SystemResetWarning,0834.2,5.00,000.00,029.1,025.8,000.0,037.3,030.6,28.8,0000.0,0006.05,0011.95,0005.04
2023-07-25 05:39:00,SystemResetWarning,0834.2,5.00,000.00,029.1,025.4,000.0,037.2,030.4,29.1,0000.0,0005.99,0011.78,0005.03
2023-07-25 05:40:00,SystemResetWarning,0834.3,5.01,000.00,029.0,025.6,000.0,037.3,030.3,29.6,0000.0,0005.98,0011.16,0005.03
2023-07-25 05:41:00,SystemResetWarning,0834.3,5.01,000.00,029.0,026.0,000.0,037.3,030.3,30.3,0000.0,0005.98,0010.92,0005.03
2023-07-25 05:42:00,SystemResetWarning,0834.4,4.99,000.00,029.0,026.4,000.0,037.4,030.4,31.0,0000.0,0005.95,0010.62,0005.04
2023-07-25 05:43:00,SystemResetWarning,0834.2,5.01,000.00,029.0,026.8,000.0,037.4,030.5,30.4,0000.0,0005.96,0010.57,0005.03
2023-07-25 05:44:00,SystemResetWarning,0834.2,5.00,000.00,029.0,027.1,000.0,037.4,030.6,29.9,0000.0,0005.96,0010.38,0005.03
2023-07-25 05:45:00,SystemResetWarning,0834.2,4.99,000.00,029.0,027.3,000.0,037.4,030.7,29.6,0000.0,0005.91,0010.24,0005.02
2023-07-25 05:46:00,SystemResetWarning,0834.2,5.00,000.00,029.1,027.6,000.0,037.4,030.7,29.2,0000.0,0005.89,0010.64,0005.02
2023-07-25 05:47:00,SystemResetWarning,0834.2,5.00,000.00,029.1,027.8,000.0,037.4,030.8,29.2,0000.0,0005.89,0011.06,0005.02
2023-07-25 05:48:00,SystemResetWarning,0834.2,5.00,000.00,029.1,027.9,000.0,037.5,030.9,29.0,0000.0,0005.87,0011.12,0005.02
2023-07-25 05:49:00,SystemResetWarning,0834.2,4.99,000.00,029.2,027.0,000.0,037.4,030.8,28.6,0000.0,0005.88,0011.27,0005.03
2023-07-25 05:50:00,SystemResetWarning,0834.2,5.01,000.00,029.1,025.6,000.0,037.3,030.6,29.2,0000.0,0005.90,0011.99,0005.03
2023-07-25 05:51:00,SystemResetWarning,0834.2,5.01,000.00,029.0,025.5,000.0,037.3,030.4,32.7,0000.0,0005.88,0011.94,0005.02
2023-07-25 05:52:00,SystemResetWarning,0834.2,5.00,000.00,029.0,025.7,000.0,037.3,030.3,33.9,0000.0,0005.87,0012.14,0005.03
2023-07-25 05:53:00,SystemResetWarning,0834.6,5.00,000.00,029.0,026.1,000.0,037.3,030.4,34.6,0000.0,0005.89,0012.90,0005.03
2023-07-25 05:54:00,SystemResetWarning,0834.7,4.99,000.00,029.0,026.5,000.0,037.4,030.5,34.9,0000.0,0005.91,0013.25,0005.03
2023-07-25 05:55:00,SystemResetWarning,0834.6,4.99,000.00,029.0,026.8,000.0,037.4,030.5,34.7,0000.0,0005.90,0013.94,0005.03
2023-07-25 05:56:00,SystemResetWarning,0834.5,5.00,000.00,029.0,027.1,000.0,037.4,030.6,34.4,0000.0,0005.92,0013.94,0005.05
2023-07-25 05:57:00,SystemResetWarning,0834.3,5.01,000.00,029.0,027.4,000.0,037.4,030.7,34.3,0000.0,0005.92,0014.05,0005.07
2023-07-25 05:58:00,SystemResetWarning,0834.4,4.99,000.00,029.1,027.6,000.0,037.4,030.8,34.2,0000.0,0005.89,0013.71,0005.09
2023-07-25 05:59:00,SystemResetWarning,0834.4,4.99,000.00,029.1,027.8,000.0,037.5,030.8,34.2,0000.0,0005.93,0013.62,0005.11
